Location: Agua Amarilla
(10.0342°N, 66.8490°W)
Time: 06:06:38
(UTC+00:00)

ARIANE 5 DEB (SYLDA) - Pass Details

Date: 26 June 2022
Orbit: 591 x 35659 km, 4.2° (Epoch: 18 August)

Event Time Altitude Azimuth Distance (km) Brightness Sun altitude
Rises 23:29:52 0° 240° (WSW) 3,312 6.8 -9.4°
Reaches altitude 10° 23:33:25 10° 209° (SSW) 1,925 5.1 -10.2°
Maximum altitude 23:35:20 14° 174° (S) 1,692 4.5 -10.6°
Enters shadow 23:37:01 11° 145° (SE) 1,981 4.6 -11.0°
